Flag for Denmark Weather past 2 weeks in Roskilde, Denmark

Now
61 °F

Broken clouds.


Feels Like: 61 °F
Forecast: 55 / 65 °F
Wind: 22 mph from West

Location: Koebenhavn / Roskilde

Current Time: Aug 20, 2014 at 11:18:15 AM

Latest Report: Aug 20, 2014 at 10:50 AM


Visibility: N/A

Pressure: 29.68 "Hg

Humidity: 63%

Dew point: 48 °F

Location of RoskildeLocation

Historic Weather in Roskilde — Graph

°F

Roskilde temperature yesterday

Maximum temperature yesterday: 63 °F (at 12:20 PM)
Minimum temperature yesterday: 52 °F (at 5:50 AM)
Average temperature yesterday: 57 °F

Past Weeks' High & Low Weather Summary

 TemperatureHumidityPressure
High75 °F (Aug 7, 4:50 PM)100% (Aug 7, 4:50 AM)30.04 "Hg (Aug 7, 4:50 AM)
Low52 °F (Aug 13, 3:20 AM)44% (Aug 6, 4:50 PM)29.36 "Hg (Aug 18, 11:20 AM)
Average62 °F76%29.75 "Hg
* Reported Aug 5 10:20 AM — Aug 20 10:20 AM, Roskilde, Weather by CustomWeather, © 2014

Note: Actual official high and low records may vary slightly from our data, if they occured in-between our weather recording intervals... More about our weather records

Advertising

Roskilde weather history for previous 24 hours

 ConditionsComfort  
Time TempWeatherWind HumidityBarometerVisibility
10:20 AM
Aug 20
59 °FScattered clouds.21 mph68%29.65 "HgN/A
9:50 AM59 °FPassing clouds.17 mph68%29.65 "HgN/A
9:20 AM57 °FBroken clouds.17 mph72%29.65 "HgN/A
8:50 AM57 °FPassing clouds.17 mph72%29.65 "HgN/A
8:20 AM55 °FPassing clouds.14 mph82%29.62 "HgN/A
7:50 AM55 °FBroken clouds.14 mph82%29.62 "HgN/A
7:20 AM55 °FPartly sunny.14 mph82%29.62 "HgN/A
6:50 AM54 °FPassing clouds.12 mph88%29.62 "HgN/A
6:20 AM54 °FPassing clouds.10 mph88%29.62 "HgN/A
5:50 AM54 °FPassing clouds.12 mph88%29.62 "HgN/A
5:20 AM54 °FPassing clouds.12 mph88%29.59 "HgN/A
4:50 AM52 °FPassing clouds.12 mph94%29.59 "HgN/A
4:20 AM54 °FPassing clouds.12 mph88%29.59 "HgN/A
3:50 AM52 °FPassing clouds.10 mph94%29.59 "HgN/A
3:20 AM52 °FPassing clouds.9 mph94%29.62 "HgN/A
2:50 AM52 °FCool.9 mph94%29.59 "HgN/A
2:20 AM54 °FCool.9 mph88%29.59 "HgN/A
1:50 AM54 °FPassing clouds.10 mph88%29.59 "HgN/A
1:20 AM54 °FPassing clouds.10 mph88%29.62 "HgN/A
12:50 AM54 °FCool.9 mph88%29.62 "HgN/A
12:20 AM54 °FPassing clouds.12 mph88%29.62 "HgN/A
11:50 PM
Aug 19
52 °FCool.9 mph88%29.62 "HgN/A
11:20 PM54 °FCool.12 mph88%29.62 "HgN/A
10:50 PM54 °FCool.9 mph88%29.62 "HgN/A
10:20 PM54 °FPassing clouds.9 mph82%29.62 "HgN/A
9:50 PM54 °FPassing clouds.10 mph82%29.62 "HgN/A
9:20 PM54 °FCool.10 mph82%29.62 "HgN/A
8:50 PM55 °FPassing clouds.12 mph72%29.62 "HgN/A
8:20 PM57 °FPartly sunny.13 mph72%29.62 "HgN/A
7:50 PM59 °FPassing clouds.18 mph68%29.62 "HgN/A
7:20 PM61 °FPartly sunny.17 mph59%29.62 "HgN/A
6:50 PM61 °FPartly sunny.18 mph59%29.59 "HgN/A
6:20 PM61 °FPartly sunny.18 mph59%29.62 "HgN/A
5:50 PM63 °FScattered clouds.23 mph56%29.62 "HgN/A
5:20 PM63 °FPassing clouds.22 mph56%29.59 "HgN/A
4:50 PM63 °FPassing clouds.23 mph56%29.59 "HgN/A
4:20 PM63 °FPassing clouds.25 mph56%29.59 "HgN/A
3:50 PM63 °FBroken clouds.25 mph59%29.59 "HgN/A
3:20 PM61 °FScattered clouds.21 mph63%29.59 "HgN/A
2:50 PM63 °FPartly sunny.18 mph64%29.59 "HgN/A
2:20 PM63 °FSprinkles. Broken clouds.25 mph64%29.59 "HgN/A
1:50 PM61 °FBroken clouds.18 mph63%29.59 "HgN/A
1:20 PM59 °FRain showers. Scattered clouds.15 mph88%29.59 "HgN/A
12:50 PM55 °FRain. Broken clouds.21 mph82%29.59 "HgN/A
12:20 PM63 °FPartly sunny.22 mph56%29.59 "HgN/A
11:50 AM61 °FPassing clouds.24 mph63%29.59 "HgN/A
11:20 AM61 °FScattered clouds.24 mph59%29.56 "HgN/A
Weather by CustomWeather, © 2014

See weather overviewHow to use our weather pages